Location: A�t �Alizem
(31.2076°N, 8.7872°W)
Time: 15:10:52
(UTC+00:00)

deb Explorer IX - Pass Details

Date: 27 June 2021
Orbit: 542 x 1234 km, 38.9° (Epoch: 23 July)

Event Time Altitude Azimuth Distance (km) Brightness Sun altitude
Rises 03:49:03 0° 294° (WNW) 3,240 ? -18.9°
Reaches altitude 10° 03:51:20 10° 293° (WNW) 2,409 ? -18.5°
Maximum altitude 03:57:06 77° 209° (SSW) 965 ? -17.6°
Drops below altitude 10° 04:04:08 10° 124° (SE) 2,902 ? -16.5°
Sets 04:07:05 0° 123° (ESE) 3,948 ? -16.0°
